Location: Coopersdale
(40.3556°N, 78.9372°W)
Time: 19:49:17
(UTC+00:00)

Transit 4A - Pass Details

Date: 29 January 2021
Orbit: 866 x 978 km, 66.8° (Epoch: 26 February)

Event Time Altitude Azimuth Distance (km) Brightness Sun altitude
Rises 21:47:47 0° 177° (S) 3,652 11.4 6.5°
Reaches altitude 10° 21:50:38 10° 167° (SSE) 2,715 10.6 6.1°
Maximum altitude 21:56:04 30° 108° (ESE) 1,662 9.0 5.1°
Drops below altitude 10° 22:01:30 10° 49° (NE) 2,724 9.7 4.2°
Sets 22:04:21 0° 40° (NE) 3,666 10.4 3.8°
